SP5AP-3 Weather Reports


time (UTC)temp
C
wind
direction
speed
KPH
gust
KPH
rain 1hr
cm
rain 24hr
cm
rain mn
cm
humidity
%
barometer
mb
20260504170307 25 0 0.0 0.0 0.00 0.00 0.00 3 1009.0
20260504160303 26 251 0.0 1.6 0.00 0.00 0.00 3 1009.1
20260504150759 26 4 0.0 1.6 0.00 0.00 0.00 3 1009.2
20260504150259 26 12 0.0 1.6 0.00 0.00 0.00 3 1009.3
20260504141256 26 242 3.2 4.8 0.00 0.00 0.00 3 1009.5
20260504140755 26 347 0.0 1.6 0.00 0.00 0.00 3 1009.4
20260504140255 26 334 0.0 1.6 0.00 0.00 0.00 3 1009.6
20260504130751 26 215 3.2 4.8 0.00 0.00 0.00 3 1010.0
20260504130251 26 16 1.6 8.0 0.00 0.00 0.00 3 1010.2
20260504120247 26 354 0.0 1.6 0.00 0.00 0.00 3 1010.7
20260504110243 26 0 0.0 0.0 0.00 0.00 0.00 2 1011.1
20260504100239 25 0 0.0 0.0 0.00 0.00 0.00 3 1011.6
20260504081732 23 350 1.6 3.2 0.00 0.00 0.00 3 1012.0
20260504081232 23 0 3.2 4.8 0.00 0.00 0.00 3 1012.0
20260504080731 23 205 1.6 3.2 0.00 0.00 0.00 3 1011.9
20260504080231 23 86 1.6 1.6 0.00 0.00 0.00 3 1012.1
20260504070227 21 26 0.0 1.6 0.00 0.00 0.00 3 1012.5
20260504060223 18 215 1.6 3.2 0.00 0.00 0.00 3 1012.4
20260504050719 16 0 0.0 0.0 0.00 0.00 0.00 4 1012.5
20260504050219 16 201 0.0 3.2 0.00 0.00 0.00 4 1012.5
20260504045719 16 0 0.0 0.0 0.00 0.00 0.00 4 1012.5
20260504045218 16 0 0.0 0.0 0.00 0.00 0.00 4 1012.4
20260504044718 16 206 0.0 1.6 0.00 0.00 0.00 4 1012.3
20260504044218 16 43 0.0 3.2 0.00 0.00 0.00 4 1012.3
20260504043717 16 0 0.0 0.0 0.00 0.00 0.00 4 1012.3
20260504043217 16 0 0.0 0.0 0.00 0.00 0.00 4 1012.2
20260504042717 16 0 0.0 0.0 0.00 0.00 0.00 4 1012.1
20260504042216 15 358 0.0 1.6 0.00 0.00 0.00 4 1012.2
20260504041716 15 0 0.0 0.0 0.00 0.00 0.00 4 1012.2
20260504041216 15 0 0.0 0.0 0.00 0.00 0.00 4 1012.4
20260504040715 15 0 0.0 0.0 0.00 0.00 0.00 4 1012.2
20260504040215 15 0 0.0 0.0 0.00 0.00 0.00 4 1012.3
20260504035715 14 0 0.0 0.0 0.00 0.00 0.00 4 1012.2
20260504035214 14 0 0.0 0.0 0.00 0.00 0.00 4 1012.3
20260504034714 14 0 0.0 0.0 0.00 0.00 0.00 4 1012.6
20260504034214 14 0 0.0 0.0 0.00 0.00 0.00 4 1012.3
20260504033713 14 0 0.0 0.0 0.00 0.00 0.00 4 1012.4
20260504033213 14 0 0.0 0.0 0.00 0.00 0.00 4 1012.4
20260504032713 14 0 0.0 0.0 0.00 0.00 0.00 4 1012.3
20260504032212 13 0 0.0 0.0 0.00 0.00 0.00 4 1012.3
20260504031712 13 0 0.0 0.0 0.00 0.00 0.00 4 1012.3
20260504031212 13 0 0.0 0.0 0.00 0.00 0.00 4 1012.3
20260504030711 13 0 0.0 0.0 0.00 0.00 0.00 4 1012.4
20260504030211 13 0 0.0 0.0 0.00 0.00 0.00 4 1012.4
20260504025711 13 0 0.0 0.0 0.00 0.00 0.00 5 1012.4
20260504025210 13 0 0.0 0.0 0.00 0.00 0.00 4 1012.3
20260504024710 13 0 0.0 0.0 0.00 0.00 0.00 4 1012.6
20260504024210 13 0 0.0 0.0 0.00 0.00 0.00 5 1012.5
20260504023709 13 0 0.0 0.0 0.00 0.00 0.00 5 1012.4
20260504023209 13 0 0.0 0.0 0.00 0.00 0.00 5 1012.2
20260504022709 13 0 0.0 0.0 0.00 0.00 0.00 5 1012.4
20260504022208 13 0 0.0 0.0 0.00 0.00 0.00 5 1012.6
20260504021708 13 0 0.0 0.0 0.00 0.00 0.00 5 1012.5
20260504021208 13 0 0.0 0.0 0.00 0.00 0.00 5 1012.7
20260504020707 13 0 0.0 0.0 0.00 0.00 0.00 5 1012.5
20260504020207 13 0 0.0 0.0 0.00 0.00 0.00 5 1012.4
20260504015707 14 0 0.0 0.0 0.00 0.00 0.00 5 1012.6
20260504015206 14 0 0.0 0.0 0.00 0.00 0.00 5 1012.5
20260504014706 14 0 0.0 0.0 0.00 0.00 0.00 5 1012.7
20260504014206 14 0 0.0 0.0 0.00 0.00 0.00 5 1012.4
20260504013705 15 0 0.0 0.0 0.00 0.00 0.00 5 1012.4
20260504013205 15 0 0.0 0.0 0.00 0.00 0.00 5 1012.7
20260504012705 15 0 0.0 0.0 0.00 0.00 0.00 5 1012.6
20260504012204 15 0 0.0 0.0 0.00 0.00 0.00 5 1012.6
20260504011704 15 0 0.0 0.0 0.00 0.00 0.00 5 1012.5
20260504011204 15 0 0.0 0.0 0.00 0.00 0.00 5 1012.5
20260504010703 15 0 0.0 0.0 0.00 0.00 0.00 5 1012.6
20260504010203 15 0 0.0 0.0 0.00 0.00 0.00 5 1012.7
20260504005703 15 0 0.0 0.0 0.00 0.00 0.00 4 1012.6
20260504005202 15 0 0.0 0.0 0.00 0.00 0.00 4 1012.7
20260504004702 15 0 0.0 0.0 0.00 0.00 0.00 4 1012.4
20260504004202 16 0 0.0 0.0 0.00 0.00 0.00 4 1012.3
20260504003701 15 0 0.0 0.0 0.00 0.00 0.00 4 1012.6
20260504003201 16 0 0.0 0.0 0.00 0.00 0.00 4 1012.5
20260504002701 16 0 0.0 0.0 0.00 0.00 0.00 4 1012.6
20260504002200 16 0 0.0 0.0 0.00 0.00 0.00 4 1012.4
20260504001700 16 0 0.0 0.0 0.00 0.00 0.00 4 1012.3
20260504001159 16 0 0.0 0.0 0.00 0.00 0.00 4 1012.4
20260504000659 16 0 0.0 0.0 0.00 0.00 0.00 4 1012.5
20260504000159 16 0 0.0 0.0 0.00 0.00 0.00 4 1012.3
20260503235658 16 0 0.0 0.0 0.00 0.00 0.00 4 1012.4
20260503235158 16 0 0.0 0.0 0.00 0.00 0.00 4 1012.4
20260503234658 15 0 0.0 0.0 0.00 0.00 0.00 4 1012.4
20260503234157 15 0 0.0 0.0 0.00 0.00 0.00 4 1012.4
20260503233657 15 0 0.0 0.0 0.00 0.00 0.00 4 1012.6
20260503233157 15 0 0.0 0.0 0.00 0.00 0.00 4 1012.7
20260503232656 15 0 0.0 0.0 0.00 0.00 0.00 4 1012.5
20260503232156 16 0 0.0 0.0 0.00 0.00 0.00 4 1012.7
20260503231656 15 0 0.0 0.0 0.00 0.00 0.00 4 1012.6
20260503231155 16 0 0.0 0.0 0.00 0.00 0.00 4 1012.6
20260503230655 16 0 0.0 0.0 0.00 0.00 0.00 4 1012.6
20260503230155 16 0 0.0 0.0 0.00 0.00 0.00 4 1012.6
20260503225654 16 0 0.0 0.0 0.00 0.00 0.00 4 1012.6
20260503225154 16 0 0.0 0.0 0.00 0.00 0.00 4 1012.7
20260503224654 16 0 0.0 0.0 0.00 0.00 0.00 4 1012.7
20260503224153 16 0 0.0 0.0 0.00 0.00 0.00 4 1012.8
20260503223653 16 0 0.0 0.0 0.00 0.00 0.00 4 1012.8
20260503223153 16 0 0.0 0.0 0.00 0.00 0.00 4 1012.6
20260503222652 16 0 0.0 0.0 0.00 0.00 0.00 4 1012.8
20260503222152 17 0 0.0 0.0 0.00 0.00 0.00 4 1012.9
20260503221652 17 0 0.0 0.0 0.00 0.00 0.00 4 1012.7
20260503221151 17 0 0.0 0.0 0.00 0.00 0.00 4 1012.8
20260503220651 17 0 0.0 0.0 0.00 0.00 0.00 4 1012.6
20260503220151 17 0 0.0 0.0 0.00 0.00 0.00 4 1012.7
20260503215650 17 0 0.0 0.0 0.00 0.00 0.00 4 1012.8
20260503215150 17 0 0.0 0.0 0.00 0.00 0.00 4 1012.6
20260503214650 18 0 0.0 0.0 0.00 0.00 0.00 4 1012.7
20260503214149 18 0 0.0 0.0 0.00 0.00 0.00 3 1012.7
20260503213649 18 0 0.0 0.0 0.00 0.00 0.00 3 1012.7
20260503213149 19 0 0.0 0.0 0.00 0.00 0.00 3 1012.6
20260503212648 19 0 0.0 0.0 0.00 0.00 0.00 3 1012.7
20260503212148 19 0 0.0 0.0 0.00 0.00 0.00 3 1012.5
20260503211648 19 0 0.0 0.0 0.00 0.00 0.00 3 1012.6
20260503211147 20 0 0.0 0.0 0.00 0.00 0.00 3 1012.5
20260503210647 19 0 0.0 0.0 0.00 0.00 0.00 3 1012.8
20260503210147 19 0 0.0 0.0 0.00 0.00 0.00 3 1012.6
20260503205646 20 0 0.0 0.0 0.00 0.00 0.00 3 1012.5
20260503205146 20 0 0.0 0.0 0.00 0.00 0.00 3 1012.4
20260503204646 19 0 0.0 0.0 0.00 0.00 0.00 3 1012.6
20260503204145 19 0 0.0 0.0 0.00 0.00 0.00 3 1012.7
20260503203645 19 0 0.0 0.0 0.00 0.00 0.00 3 1012.5
20260503203145 18 0 0.0 0.0 0.00 0.00 0.00 3 1012.8
20260503202644 18 0 0.0 0.0 0.00 0.00 0.00 3 1012.6
20260503202144 18 0 0.0 0.0 0.00 0.00 0.00 3 1012.7
20260503201644 18 0 0.0 0.0 0.00 0.00 0.00 3 1012.4
20260503201143 18 0 0.0 0.0 0.00 0.00 0.00 3 1012.5
20260503200643 18 0 0.0 0.0 0.00 0.00 0.00 3 1012.6
20260503200143 18 0 0.0 0.0 0.00 0.00 0.00 3 1012.5
20260503195642 18 0 0.0 0.0 0.00 0.00 0.00 3 1012.6
20260503195142 18 0 0.0 0.0 0.00 0.00 0.00 3 1012.5
20260503194642 18 0 0.0 0.0 0.00 0.00 0.00 3 1012.6
20260503194141 19 0 0.0 0.0 0.00 0.00 0.00 3 1012.5
20260503193641 19 0 0.0 0.0 0.00 0.00 0.00 3 1012.5
20260503193141 19 0 0.0 0.0 0.00 0.00 0.00 3 1012.5
20260503192640 19 0 0.0 0.0 0.00 0.00 0.00 3 1012.6
20260503192140 19 0 0.0 0.0 0.00 0.00 0.00 3 1012.5
20260503191640 19 0 0.0 0.0 0.00 0.00 0.00 3 1012.5
20260503191139 20 0 0.0 0.0 0.00 0.00 0.00 3 1012.8
20260503190639 20 0 0.0 0.0 0.00 0.00 0.00 3 1012.6
20260503190139 20 0 0.0 0.0 0.00 0.00 0.00 3 1012.6
20260503185638 20 0 0.0 0.0 0.00 0.00 0.00 3 1012.3
20260503185138 21 0 0.0 0.0 0.00 0.00 0.00 3 1012.6
20260503184638 21 0 0.0 0.0 0.00 0.00 0.00 3 1012.6
20260503184137 21 0 0.0 0.0 0.00 0.00 0.00 3 1012.5
20260503183637 21 0 0.0 0.0 0.00 0.00 0.00 3 1012.4
20260503183137 21 0 0.0 0.0 0.00 0.00 0.00 3 1012.4
20260503182636 21 0 0.0 0.0 0.00 0.00 0.00 3 1012.5
20260503182136 22 0 0.0 0.0 0.00 0.00 0.00 3 1012.2
20260503181636 22 0 0.0 0.0 0.00 0.00 0.00 3 1012.4
20260503181135 22 0 0.0 0.0 0.00 0.00 0.00 3 1012.5
20260503180635 22 0 0.0 0.0 0.00 0.00 0.00 3 1012.3
20260503180135 22 0 0.0 0.0 0.00 0.00 0.00 2 1012.2
20260503175634 22 0 0.0 0.0 0.00 0.00 0.00 2 1012.2
20260503175134 22 0 0.0 0.0 0.00 0.00 0.00 2 1012.2
20260503174634 23 0 0.0 0.0 0.00 0.00 0.00 2 1011.9
20260503174133 23 0 0.0 0.0 0.00 0.00 0.00 2 1012.2
20260503173633 23 0 0.0 0.0 0.00 0.00 0.00 2 1012.0
20260503173133 23 0 0.0 0.0 0.00 0.00 0.00 2 1012.0
20260503172632 23 277 0.0 1.6 0.00 0.00 0.00 2 1012.0
20260503172132 23 302 0.0 1.6 0.00 0.00 0.00 2 1012.1
20260503171632 24 0 0.0 0.0 0.00 0.00 0.00 2 1011.9
20260503171131 24 0 0.0 0.0 0.00 0.00 0.00 2 1011.9
20260503170631 24 0 0.0 0.0 0.00 0.00 0.00 2 1012.1